Mather AFB, CA

4:50 AM PST on February 23, 2018 (GMT -0800)
Mather

Weather History for KMHR - March, 2014

Change the Weather History Date:

Thursday, March 20, 2014

  Actual Average Record
Temperature  
Mean Temperature 60 °F -  
Max Temperature 75 °F 66 °F 82 °F (2004)
Min Temperature 46 °F 42 °F 37 °F (2008)
Degree Days  
Heating Degree Days 4    
Growing Degree Days 10 (Base 50)    
Moisture  
Dew Point 43 °F    
Average Humidity 57    
Maximum Humidity 93    
Minimum Humidity 25    
Precipitation  
Precipitation 0.00 in - - ()
Sea Level Pressure  
Sea Level Pressure 29.99 in    
Wind  
Wind Speed 3 mph (NW)    
Max Wind Speed 8 mph    
Max Gust Speed -    
Visibility 10 miles    
Events      
Averages and records for this station are not official NWS values.
T = Trace of Precipitation, MM = Missing Value Source: NWS Daily Summary

Daily Weather History Graph

Daily Weather History Graph

Search for Another Location

Airport or City:

Trip Planner

Search our weather history database for the weather conditions in past years. The results will help you decide how hot, cold, wet, or windy it might be!

Date:

Astronomy

Mar. 20, 2014 Rise Set
Actual Time 7:08 AM PDT 7:17 PM PDT
Civil Twilight 6:42 AM PDT 7:43 PM PDT
Nautical Twilight 6:11 AM PDT 8:14 PM PDT
Astronomical Twilight 5:39 AM PDT 8:46 PM PDT
Moon 11:39 PM PDT (3/20) 9:21 AM PDT (3/20)
Length of Visible Light 13h 01m
Length of Day
12h 08m
Waning Gibbous, 83% of the Moon is Illuminated
Mar 20
Waning Gibbous
Mar 23
Last Quarter
Mar 30
New
Apr 7
First Quarter
Apr 15
Full

Hourly Weather History & Observations

Time (PDT) Temp. Dew Point Humidity Pressure Visibility Wind Dir Wind Speed Gust Speed Precip Events Conditions
2:50 AM 48.2 °F 46.4 °F 93% 30.05 in 10.0 mi East 3.5 mph - N/A   Clear
3:54 AM 48.2 °F 44.6 °F 87% 30.03 in 10.0 mi Calm Calm - N/A   Clear
4:50 AM 48.2 °F 44.6 °F 87% 30.03 in 10.0 mi Calm Calm - N/A   Clear
5:55 AM 46.4 °F 44.6 °F 93% 30.04 in 10.0 mi Calm Calm - N/A   Clear
6:53 AM 48.2 °F 44.6 °F 87% 30.04 in 10.0 mi Calm Calm - N/A   Mostly Cloudy
7:45 AM 48.2 °F 46.4 °F 93% 30.04 in 10.0 mi Calm Calm - N/A   Mostly Cloudy
8:56 AM 55.4 °F 44.6 °F 67% 30.04 in 10.0 mi NNW 3.5 mph - N/A   Mostly Cloudy
9:55 AM 59.0 °F 46.4 °F 63% 30.05 in 10.0 mi NNW 4.6 mph - N/A   Mostly Cloudy
10:45 AM 62.6 °F 44.6 °F 52% 30.05 in 10.0 mi West 4.6 mph - N/A   Mostly Cloudy
11:45 AM 66.2 °F 44.6 °F 46% 30.03 in 10.0 mi NW 6.9 mph - N/A   Mostly Cloudy
12:45 PM 69.8 °F 44.6 °F 40% 30.01 in 10.0 mi NW 5.8 mph - N/A   Partly Cloudy
1:45 PM 73.4 °F 41.0 °F 31% 29.99 in 10.0 mi NNW 5.8 mph - N/A   Partly Cloudy
2:46 PM 73.4 °F 41.0 °F 31% 29.96 in 10.0 mi NNW 6.9 mph - N/A   Partly Cloudy
3:46 PM 75.2 °F 39.2 °F 27% 29.94 in 10.0 mi WNW 6.9 mph - N/A   Partly Cloudy
4:45 PM 75.2 °F 41.0 °F 29% 29.92 in 10.0 mi WNW 8.1 mph - N/A   Partly Cloudy
5:45 PM 75.2 °F 37.4 °F 25% 29.91 in 10.0 mi Calm Calm - N/A   Partly Cloudy
6:45 PM 73.4 °F 39.2 °F 29% - 10.0 mi North 5.8 mph - N/A   Scattered Clouds
7:55 PM 66.2 °F 39.2 °F 37% 29.90 in 10.0 mi NE 3.5 mph - N/A   Scattered Clouds
8:45 PM 59.0 °F 42.8 °F 55% 29.91 in 10.0 mi SSW 3.5 mph - N/A   Scattered Clouds
9:45 PM 59.0 °F 44.6 °F 59% 29.92 in 10.0 mi SSW 4.6 mph - N/A   Scattered Clouds
10:45 PM 57.2 °F 42.8 °F 59% 29.92 in 10.0 mi SSW 4.6 mph - N/A   Scattered Clouds
11:30 PM 55.4 °F 42.8 °F 63% 29.93 in 10.0 mi SW 6.9 mph - N/A   Scattered Clouds